Simultaneous Nadir Overpasses (SNOs) Predictions

Prediction of SNOs between AQUA and NPP Satellite Orbit:

Table of predicted SNOs for the next 14.0 days since TLE Epoch: 11/3/2017
Index Date (AQUA) Time (AQUA) Lat,Lon (AQUA) SZA (AQUA ) Date (NPP) Time (NPP) Lat,Lon (NPP) SZA (NPP ) Distance(km) Time Diff (sec)
1 11/05/2017 21:48:27 76.13, 92.31 111.71 11/05/2017 21:48:16 76.14, 92.41 111.70 2.83 11
2 11/05/2017 22:37:39 -76.90, -97.47 69.11 11/05/2017 22:38:45 -76.90, -97.47 69.17 0.13 66
3 11/08/2017 13:15:56 -74.83, 36.85 66.18 11/08/2017 13:14:54 -74.82, 36.77 66.09 2.63 62
4 11/08/2017 14:04:51 76.31,-151.23 112.30 11/08/2017 14:05:06 76.31,-151.22 112.28 0.42 15
5 11/11/2017 05:32:08 -75.66, 155.00 66.29 11/11/2017 05:31:31 -75.66, 155.04 66.26 1.14 37
6 11/11/2017 06:21:15 76.53, -34.62 112.81 11/11/2017 06:21:56 76.53, -34.66 112.78 1.28 41
7 11/13/2017 21:48:30 -75.98, -88.17 65.90 11/13/2017 21:48:19 -75.98, -88.16 65.89 0.06 11
8 11/13/2017 22:37:37 76.84, 82.33 113.19 11/13/2017 22:38:44 76.83, 82.25 113.15 2.26 67
9 11/16/2017 13:15:41 75.44,-141.51 115.35 11/16/2017 13:14:39 75.44,-141.42 115.38 2.66 62




NCC Satellite Simultaneous Nadir Overpasses (SNOs) Prediction Service
